Weather History for Fort Campbell, KY

Change the Weather History Date:

Monday, April 22, 2013

  Actual Average Record
Temperature  
Mean Temperature 58 °F -  
Max Temperature 72 °F 69 °F 84 °F (2001)
Min Temperature 45 °F 49 °F 39 °F (2009)
Degree Days  
Heating Degree Days 6    
Growing Degree Days 8 (Base 50)    
Moisture  
Dew Point 40 °F    
Average Humidity 47    
Maximum Humidity 73    
Minimum Humidity 30    
Precipitation  
Precipitation 0.00 in - - ()
Sea Level Pressure  
Sea Level Pressure 30.19 in    
Wind  
Wind Speed 6 mph (SE)    
Max Wind Speed 10 mph    
Max Gust Speed -    
Visibility 10 miles    
Events      
Averages and records for this station are not official NWS values.
T = Trace of Precipitation, MM = Missing Value Source: NWS Daily Summary

Daily Weather History Graph

Daily Weather History Graph

Search for Another Location

Airport:

Trip Planner

Search our weather history database for the weather conditions in past years. The results will help you decide how hot, cold, wet, or windy it might be!

Date:

Astronomy

Apr. 22, 2013 Rise Set
Actual Time 6:06 AM CDT 7:30 PM CDT
Civil Twilight 5:39 AM CDT 7:57 PM CDT
Nautical Twilight 5:07 AM CDT 8:30 PM CDT
Astronomical Twilight 4:33 AM CDT 9:04 PM CDT
Moon 4:23 PM CDT (4/22) 3:55 AM CDT (4/22)
Length of Visible Light 14h 18m
Length of Day
13h 24m
Waxing Gibbous, 88% of the Moon is Illuminated
Apr 22
Waxing Gibbous
Apr 25
Full
May 2
Last Quarter
May 9
New
May 17
First Quarter

Hourly Weather History & Observations

Time (CDT) Temp. Windchill Dew Point Humidity Pressure Visibility Wind Dir Wind Speed Gust Speed Precip Events Conditions
12:55 AM 50.7 °F - 34.2 °F 53% 30.27 in 10.0 mi East 6.9 mph - N/A   Scattered Clouds
1:55 AM 49.5 °F - 34.3 °F 56% 30.26 in 10.0 mi East 5.8 mph - N/A   Partly Cloudy
2:55 AM 48.4 °F - 34.5 °F 59% 30.25 in 10.0 mi East 6.9 mph - N/A   Clear
3:55 AM 46.9 °F - 34.3 °F 62% 30.24 in 10.0 mi East 4.6 mph - N/A   Clear
4:55 AM 45.9 °F 44.6 °F 35.2 °F 66% 30.25 in 10.0 mi East 3.5 mph - N/A   Clear
5:55 AM 45.3 °F 42.3 °F 36.1 °F 70% 30.25 in 10.0 mi ESE 5.8 mph - N/A   Clear
6:55 AM 46.0 °F 43.9 °F 37.8 °F 73% 30.27 in 10.0 mi East 4.6 mph - N/A   Clear
7:55 AM 50.7 °F - 39.4 °F 65% 30.27 in 10.0 mi East 5.8 mph - N/A   Clear
8:55 AM 57.0 °F - 41.0 °F 55% 30.26 in 10.0 mi SSE 9.2 mph - N/A   Clear
9:55 AM 62.2 °F - 42.4 °F 48% 30.26 in 8.0 mi South 9.2 mph - N/A   Clear
10:55 AM 66.7 °F - 43.7 °F 43% 30.25 in 9.0 mi South 10.4 mph - N/A   Clear
11:55 AM 69.1 °F - 43.2 °F 39% 30.23 in 10.0 mi SE 6.9 mph - N/A   Clear
11:58 AM 69.8 °F - 44.6 °F 40% 30.21 in 7.0 mi ESE 9.2 mph - N/A   Clear
12:26 PM 69.8 °F - 42.8 °F 38% 30.21 in 10.0 mi SSE 8.1 mph - N/A   Clear
12:56 PM 69.8 °F - 41.0 °F 35% 30.19 in 10.0 mi SSE 4.6 mph - N/A   Partly Cloudy
1:55 PM 70.7 °F - 41.0 °F 34% 30.17 in 10.0 mi East 8.1 mph - N/A   Partly Cloudy
2:55 PM 72.0 °F - 40.5 °F 32% 30.15 in 10.0 mi SE 3.5 mph - N/A   Mostly Cloudy
3:55 PM 72.3 °F - 39.4 °F 30% 30.12 in 10.0 mi South 6.9 mph - N/A   Partly Cloudy
4:55 PM 72.1 °F - 40.1 °F 31% 30.10 in 10.0 mi ESE 5.8 mph - N/A   Clear
5:58 PM 71.8 °F - 39.4 °F 31% 30.08 in 10.0 mi SE 10.4 mph - N/A   Clear
6:58 PM 69.6 °F - 39.4 °F 33% 30.08 in 10.0 mi SE 5.8 mph - N/A   Clear
7:58 PM 67.3 °F - 40.5 °F 38% 30.09 in 10.0 mi SE 3.5 mph - N/A   Clear
8:58 PM 64.0 °F - 41.7 °F 44% 30.09 in 10.0 mi SE 3.5 mph - N/A   Clear
9:58 PM 63.1 °F - 40.6 °F 44% 30.10 in 10.0 mi SSE 4.6 mph - N/A   Clear
10:58 PM 61.9 °F - 40.6 °F 46% 30.11 in 10.0 mi South 3.5 mph - N/A   Clear
11:58 PM 60.4 °F - 41.4 °F 49% 30.11 in 10.0 mi SSE 4.6 mph - N/A   Partly Cloudy